Weather History for LKPD - February, 2013

Change the Weather History Date:

Sunday, February 24, 2013

  Actual Average Record
Temperature  
Mean Temperature 34 °F -  
Max Temperature 39 °F - - ()
Min Temperature 30 °F - - ()
Degree Days  
Heating Degree Days 30    
Moisture  
Dew Point 34 °F    
Average Humidity 97    
Maximum Humidity 100    
Minimum Humidity 87    
Precipitation  
Precipitation 0.00 in - - ()
Sea Level Pressure  
Sea Level Pressure 29.83 in    
Wind  
Wind Speed 2 mph ()    
Max Wind Speed 8 mph    
Max Gust Speed -    
Visibility 2.1 miles    
Events Fog , Rain , Snow    
T = Trace of Precipitation, MM = Missing Value Source: Averaged Metar Reports

Daily Weather History Graph

Daily Weather History Graph

Search for Another Location

Airport or City:

Trip Planner

Search our weather history database for the weather conditions in past years. The results will help you decide how hot, cold, wet, or windy it might be!

Date:

Astronomy

Feb. 24, 2013 Rise Set
Actual Time 6:50 AM CET 5:30 PM CET
Civil Twilight 6:17 AM CET 6:03 PM CET
Nautical Twilight 5:40 AM CET 6:41 PM CET
Astronomical Twilight 5:02 AM CET 7:18 PM CET
Moon 4:22 PM CET (2/24) 5:41 AM CET (2/24)
Length of Visible Light 11h 45m
Length of Day
10h 40m
Waxing Gibbous, 98% of the Moon is Illuminated
Feb 24
Waxing Gibbous
Feb 25
Full
Mar 4
Last Quarter
Mar 11
New
Mar 19
First Quarter

Hourly Weather History & Observations

Time (CET) Temp. Windchill Dew Point Humidity Pressure Visibility Wind Dir Wind Speed Gust Speed Precip Events Conditions
12:00 AM 30.2 °F - 30.2 °F 100% 29.83 in 1.2 mi West 2.3 mph - N/A   Overcast
1:00 AM 30.2 °F - 30.2 °F 100% 29.83 in 1.2 mi Calm Calm - N/A   Overcast
2:00 AM 30.2 °F - 30.2 °F 100% 29.80 in 0.9 mi WNW 1.2 mph - N/A Snow Light Snow
2:34 AM 32.0 °F - 30.2 °F 93% 29.77 in 0.5 mi Calm Calm - N/A Snow Light Snow
3:00 AM 32.0 °F - 30.2 °F 93% 29.77 in 0.5 mi Calm Calm - N/A Snow Light Snow
4:00 AM 32.0 °F - 32.0 °F 100% 29.74 in 0.5 mi Calm Calm - N/A Snow Snow
4:49 AM 32.0 °F - 32.0 °F 100% 29.71 in 1.2 mi Calm Calm - N/A Rain Light Rain
5:00 AM 32.0 °F - 32.0 °F 100% 29.71 in 1.2 mi Calm Calm - N/A Rain Light Rain
6:00 AM 32.0 °F - 32.0 °F 100% 29.74 in 1.2 mi Calm Calm - N/A Rain Light Rain
6:44 AM 32.0 °F - 32.0 °F 100% 29.74 in 0.7 mi Calm Calm - N/A   Overcast
7:00 AM 32.0 °F - 32.0 °F 100% 29.74 in 0.7 mi Calm Calm - N/A   Overcast
7:49 AM 32.0 °F - 32.0 °F 100% 29.77 in 2.5 mi Variable 1.2 mph - N/A   Overcast
8:45 AM 35.6 °F 29.9 °F 33.8 °F 93% 29.77 in 3.7 mi East 6.9 mph - N/A   Overcast
9:00 AM 35.6 °F 29.9 °F 35.6 °F 100% 29.77 in 4.3 mi East 6.9 mph - N/A   Overcast
10:00 AM 37.4 °F 32.1 °F 35.6 °F 93% 29.80 in 5.0 mi East 6.9 mph - N/A   Overcast
11:00 AM 37.4 °F 31.4 °F 35.6 °F 93% 29.83 in 6.2 mi East 8.1 mph - N/A   Overcast
12:00 PM 37.4 °F 32.1 °F 35.6 °F 93% 29.83 in 6.2 mi East 6.9 mph - N/A   Overcast
1:00 PM 39.2 °F - 35.6 °F 87% 29.83 in 6.2 mi Variable 2.3 mph - N/A   Overcast
2:00 PM 37.4 °F 32.8 °F 35.6 °F 93% 29.83 in 6.2 mi ESE 5.8 mph - N/A   Overcast
3:00 PM 39.2 °F 34.2 °F 37.4 °F 93% 29.83 in 5.0 mi East 6.9 mph - N/A   Overcast
4:00 PM 37.4 °F 33.8 °F 35.6 °F 93% 29.86 in 3.7 mi East 4.6 mph - N/A   Overcast
5:00 PM 39.2 °F 35.9 °F 37.4 °F 93% 29.86 in 3.1 mi ENE 4.6 mph - N/A Rain Light Rain
5:45 PM 37.4 °F - 35.6 °F 93% 29.89 in 1.9 mi Variable 1.2 mph - N/A Rain Light Rain
6:00 PM 37.4 °F - 35.6 °F 93% 29.89 in 1.2 mi Variable 1.2 mph - N/A Rain Light Rain
6:34 PM 35.6 °F - 35.6 °F 100% 29.89 in 0.6 mi Calm Calm - N/A Rain Light Rain
6:48 PM 35.6 °F - 35.6 °F 100% 29.89 in 0.5 mi Calm Calm - N/A Fog , Rain Light Rain
7:00 PM 35.6 °F - 35.6 °F 100% 29.89 in 0.5 mi Calm Calm - N/A Fog , Rain Light Rain
7:51 PM 37.4 °F - 35.6 °F 93% 29.89 in 0.9 mi Variable 2.3 mph - N/A Rain Light Rain
8:00 PM 37.4 °F - 35.6 °F 93% 29.89 in 0.9 mi Variable 2.3 mph - N/A Rain Light Rain
9:00 PM 35.6 °F - 35.6 °F 100% 29.92 in 0.9 mi ESE 2.3 mph - N/A Rain Light Rain
9:46 PM 35.6 °F - 35.6 °F 100% 29.92 in 0.4 mi Calm Calm - N/A Fog Fog
10:00 PM 35.6 °F - 35.6 °F 100% 29.92 in 0.4 mi Calm Calm - N/A Fog Fog
11:00 PM 33.8 °F - 33.8 °F 100% 29.92 in 0.4 mi Calm Calm - N/A Fog Fog